Regional Weather Roundup
Issued by NWS Wilmington, NC

Home | Current Version | Previous Version | Text Only | Print | Product List | Glossary On
Versions: 1 2 3 4 5 6 7 8 9 10 11 12 13 14 15 16 17 18 19 20 21 22 23 24 25 26 27 28 29 30 31 32 33 34 35 36 37 38 39 40 41 42 43 44 45 46 47 48 49 50
000
ASUS42 KILM 221310
RWRILM
RWRILM
REGIONAL HOURLY WEATHER ROUNDUP
NATIONAL WEATHER SERVICE WILMINGTON NC
800 AM EST MON DEC 22 2014

NOTE: "FAIR" INDICATES FEW OR NO CLOUDS BELOW 12,000 FEET WITH NO
SIGNIFICANT WEATHER AND/OR OBSTRUCTIONS TO VISIBILITY.

...............WFO WILMINGTON COUNTY WARNING AREA...............

......COASTAL NC AND SC COUNTIES......

CITY           SKY/WX    TMP DP  RH WIND       PRES   REMARKS
WILMINGTON     CLOUDY    45  44  97 N7        30.08R FOG
SOUTHPORT      FOG       45  45  99 N10       30.06R VSB 1
N MYRTLE BEACH CLOUDY    44  42  93 N9        30.08R FOG
MYRTLE BEACH   LGT RAIN  45  41  87 N13       30.09R FOG

......INLAND NC AND SC COUNTIES.......

CITY           SKY/WX    TMP DP  RH WIND       PRES   REMARKS
LUMBERTON      RAIN      41  39  93 NE9       30.11F FOG
ELIZABETHTOWN  LGT RAIN  40  40 100 NW3       30.12R
WHITEVILLE     LGT RAIN  41  40  95 N7        30.09S
FLORENCE       CLOUDY    43  40  89 NE12      30.10S FOG
DARLINGTON     CLOUDY    43  37  81 NE10      30.12R

....................REST OF NORTH CAROLINA......................

.........EASTERN NC.........

CITY           SKY/WX    TMP DP  RH WIND       PRES   REMARKS
CAPE HATTERAS  CLOUDY    56  56 100 E9        30.06F FOG
JACKSONVILLE   CLOUDY    43  39  87 N7        30.09S
MOREHEAD CITY  CLOUDY    51  51 100 NE8       30.04F FOG
KENANSVILLE    CLOUDY    40  40  99 N9        30.12F WCI  34
NEW BERN       CLOUDY    49  45  86 NE9       30.08F FOG
ELIZABETH CITY RAIN      48  45  87 NE17G25   30.14S

.........CENTRAL NC.........

CITY           SKY/WX    TMP DP  RH WIND       PRES   REMARKS
RALEIGH DURHAM LGT RAIN  36  33  89 NE8       30.16F FOG     WCI  30
ROCKY MOUNT    LGT RAIN  38  36  92 N10       30.17R WCI  31
ROANOKE RAPIDS NOT AVBL
FAYETTEVILLE   CLOUDY    39  38  96 N14       30.12S WCI  31
HOFFMAN        CLOUDY    39  39 100 NE8       30.14R WCI  34

.........WESTERN NC.........

CITY           SKY/WX    TMP DP  RH WIND       PRES   REMARKS
CHARLOTTE      CLOUDY    39  36  89 NE8       30.13S FOG     WCI  33
GREENSBORO     LGT RAIN  34  32  92 NE10      30.16S FOG     WCI  26
HICKORY        NOT AVBL
BOONE          NOT AVBL
ASHEVILLE      NOT AVBL

.....................REST OF SOUTH CAROLINA.....................

.........EASTERN SC.........

CITY           SKY/WX    TMP DP  RH WIND       PRES   REMARKS
CHARLESTON     CLOUDY    45  44  97 N8        30.07S FOG
BEAUFORT MCAS  CLOUDY    48  47  96 N8        30.06S FOG
HILTON HEAD    CLOUDY    48  48 100 N7        30.06S FOG

.........CENTRAL SC.........

CITY           SKY/WX    TMP DP  RH WIND       PRES   REMARKS
COLUMBIA       LGT RAIN  45  42  89 NE5       30.09S
ORANGEBURG     LGT RAIN  44  41  89 NE6       30.09R FOG
SUMTER SHAW    CLOUDY    43  41  94 NE10      30.09R FOG

.........WESTERN SC.........

CITY           SKY/WX    TMP DP  RH WIND       PRES   REMARKS
GREENVILLE     NOT AVBL
ROCK HILL      CLOUDY    40  38  93 VRB6      30.11F FOG
ANDERSON       CLOUDY    43  41  93 NE9       30.10R FOG
CLEMSON        NOT AVBL
GREENWOOD      CLOUDY    43  41  93 NE8       30.10S FOG


...................COASTAL AND OFFSHORE REPORTS..................

................LOCAL PIERS AND NC RESERVE................


STATION/POSITION TIME  SKY/WX   TEMP    WIND        PRES    VSBY
                                AIR SEA DIR/SP/G
                 (UTC)          (F)     (DEG/KT/KT) (MB)    (MI)
JOHNY MRCER PIER 1300            46 55  340/ 11/ 13 1017.2R
NC RESRV MASNBRO 1200            46     360/  2     1017.0S
OCEAN CREST PIER NOT AVBL
SPRINGMAID  PIER 1300            44 52  340/  8/ 10 1018.5S


................COASTAL AND OFFSHORE BUOYS................


STATION/POSITION TIME  SKY/WX   TEMP    WIND        PRES    VSBY
                                AIR SEA DIR/SP/G
                 (UTC)          (F)     (DEG/KT/KT) (MB)    (MI)
DIMNDSHOAL 41025 1300            67                 1017.0F
WVE H/P(F/S)=  9/ 8

CAPE LOOKOUT     1200            51     360/ 12/ 16 1016.9S
ONSLOW BAY 41036 1200            58 60   30/ 16/ 19 1016.3F
5 WRITEBCH 41038 NOT AVBL
MASONBORO  41110 1300               54                N/A
WVE H/P(F/S)=  6/ 8 WND WVE H/P(F/S)=  5/ 8

WILM HARBR 41108 1300               54                N/A
WVE H/P(F/S)=  4/ 6 WND WVE H/P(F/S)=  3/ 6

27WRITEBCH 41037 1200            53 63   40/ 17/ 21 1017.2R
FRYING PAN 41013 1300            62 70   30/ 14/ 16 1016.8R
WVE H/P(F/S)=  6/ 8 WND WVE H/P(F/S)=  5/ 7 SWL H/P/D(F/S/D)=  3/ 90/ 8

SUNST NRSH 41024 1200            45      10/ 14/ 16   N/A
CAPRS NRSH 41029 1200            48      20/ 16/ 16   N/A
EDISTO     41004 1300            63 73  360/ 17/ 21 1015.5F
WVE H/P(F/S)=  5/ 8 WND WVE H/P(F/S)=  5/ 8 SWL H/P/D(F/S/D)=  3/10



..........OFFSHORE BUOYS BEYOND 100 NM OFFSHORE...........
.....IN A TRIANGLE---HAT TO BERMUDA TO BAHAMAS TO HAT.....


STATION/POSITION TIME  SKY/WX   TEMP    WIND        PRES    VSBY
                                AIR SEA DIR/SP/G
                 (UTC)          (F)     (DEG/KT/KT) (MB)    (MI)
150E HAT   41001 NOT AVBL
W BERMUDA  41048 1211            72 73  180/ 12/ 14 1020.1R
WVE H/P(F/S)=  4/ 8 WND WVE H/P(F/S)=  2/ 5 SWL H/P/D(F/S/D)=  3/ 70/ 8

ATLANTIC S 41049 1155            75 77   30/  2/  2 1022.4
WVE H/P(F/S)=  4/ 9 SWL H/P/D(F/S/D)=  3/ 50/ 9

E BAHAMAS  41046 1156            78 80   90/ 12/ 16 1020.0R
WVE H/P(F/S)=  4/ 9 WND WVE H/P(F/S)=  2/ 4 SWL H/P/D(F/S/D)=  3/ 50/ 9

NE BAHAMAS 41047 1238            76 78  160/ 16/ 17 1020.0R
WVE H/P(F/S)=  4/ 7 WND WVE H/P(F/S)=  3/ 4 SWL H/P/D(F/S/D)=  2/120/ 7

120E CANVRL41010 1300            74 77  200/  6/  8 1017.9F
WVE H/P(F/S)=  3/ 8 WND WVE H/P(F/S)=  2/ 4 SWL H/P/D(F/S/D)=  3/ 40/ 8


END



USA.gov is the U.S. government's official web portal to all federal, state and local government web resources and services.